Temperature
22 22 23 23 23 22 21 21 20 20 19 19 19 18 18 18 17 17 17 17 17 17 17 17 17 17 17 17 17 16 16 16 15 15 15 14 14 14 14 14 14 14 15
22 22 22 22 22 21 21 20 19 19 19 19 19 18 18 17 17 17 17 17 17 17 17 17 17 17 17 17 17 17 16 16 15 15 15 14 13 13 13 14 14 14 14
22 22 22 21 21 21 20 20 19 19 18 18 18 17 17 17 17 17 17 17 17 17 17 17 17 17 17 17 17 17 17 16 16 15 15 15 14 14 14 14 14 14 14
22 22 21 21 21 20 20 19 18 18 17 17 17 16 16 16 16 17 17 17 17 17 16 16 16 17 17 17 17 17 17 17 16 15 15 16 16 15 14 13 14 14 13
22 22 21 20 20 20 20 19 18 17 17 17 16 16 16 15 16 16 16 16 16 16 16 16 16 16 16 17 17 17 17 17 16 16 16 15 15 15 15 15 14 14 13
22 21 21 20 20 20 19 19 18 17 17 16 16 15 15 15 15 15 15 16 16 16 16 15 15 16 16 16 16 17 17 17 16 16 16 16 16 16 16 16 15 15 14
22 21 21 21 20 20 19 18 18 17 17 16 16 15 15 15 15 15 15 15 15 15 15 15 15 15 15 16 16 16 16 16 16 16 16 16 16 16 16 16 16 15 15
22 22 22 21 21 20 19 18 18 17 16 16 15 15 15 15 15 15 15 15 15 15 15 15 14 14 15 15 15 16 16 16 16 16 16 16 15 15 15 15 15 15 15
23 23 22 21 21 20 19 18 18 17 16 16 15 15 15 15 15 15 15 15 15 15 15 15 14 14 14 14 15 15 16 16 16 16 16 16 16 15 15 15 15 15 15
23 23 22 22 21 20 19 18 17 17 16 16 15 15 15 15 15 15 15 15 15 15 15 15 15 14 14 14 15 15 16 16 16 16 16 16 16 15 15 15 15 15 15
23 23 22 22 21 20 19 18 17 17 16 16 16 15 15 15 15 15 15 15 15 15 15 15 15 15 15 15 15 15 15 15 15 16 16 16 15 15 15 15 15 15 15
23 23 22 22 21 20 19 19 18 17 17 16 16 15 15 15 15 15 15 15 15 15 15 15 15 15 14 14 14 14 15 15 15 15 15 15 15 15 15 15 15 15 15
23 22 22 22 21 21 20 19 18 17 17 16 16 15 15 15 15 15 15 15 15 14 14 14 14 14 14 14 14 14 14 15 15 15 15 15 15 15 15 15 15 15 15
23 23 22 22 21 21 20 19 19 18 17 16 16 16 16 15 15 15 15 15 14 14 14 14 14 14 14 14 14 14 14 14 15 15 15 15 15 15 15 15 15 15 14
23 23 23 22 22 21 20 19 19 18 17 17 16 16 16 15 15 15 15 15 14 14 14 14 14 14 14 14 14 14 14 14 14 15 15 15 15 15 15 15 15 14 14
22 22 22 22 22 21 20 19 19 18 17 17 17 16 16 15 15 15 15 15 15 15 14 14 14 15 15 14 14 14 14 14 14 14 15 15 15 15 15 15 15 14 14
21 21 21 21 21 21 20 19 19 18 17 17 17 16 16 15 15 15 15 15 15 15 15 15 15 15 15 14 14 14 14 14 14 14 14 15 15 15 15 15 15 14 14
21 21 21 21 20 20 19 19 18 18 17 17 17 16 16 16 15 15 15 15 15 15 15 15 14 14 14 14 15 14 14 14 14 14 14 15 15 15 15 15 14 14 14
21 21 20 20 20 19 18 18 17 17 17 17 17 16 16 16 15 15 15 15 15 14 14 14 14 14 14 14 14 14 14 14 14 14 14 15 15 15 15 14 15 15 15
20 20 19 19 18 17 17 16 16 16 16 16 15 16 16 16 15 15 15 15 14 14 14 14 14 14 14 14 13 13 13 14 14 14 14 15 15 14 14 14 14 14 15
18 18 18 17 16 16 15 15 15 14 14 14 14 14 15 15 15 15 15 15 14 14 13 13 13 13 13 13 13 13 13 13 13 14 14 14 14 14 14 14 14 14 13
17 17 16 16 15 14 14 14 13 13 13 13 13 13 13 14 14 14 14 14 14 13 13 13 13 13 12 12 12 12 12 13 13 13 13 13 13 13 13 13 13 13 13
16 16 15 14 14 13 13 13 13 12 12 12 12 12 12 12 13 13 13 13 13 13 13 12 12 12 12 12 12 12 12 12 12 12 13 12 12 12 12 12 12 12 12
16 15 14 14 13 13 13 13 12 12 12 11 11 11 11 12 12 12 12 12 12 12 12 12 12 12 12 12 12 12 12 12 12 12 12 12 12 12 12 12 12 11 11
16 15 14 14 13 13 13 13 12 12 11 11 11 11 11 11 11 11 11 12 12 12 12 11 11 11 11 11 12 12 12 12 12 12 12 12 12 12 12 12 11 11 11
16 15 14 14 14 13 13 13 12 11 11 11 11 11 11 11 11 11 11 11 11 11 11 11 11 11 11 11 11 12 12 11 11 11 11 11 11 11 11 11 11 11 11
Wind_Speed
1 2 3 2 1 3 6 8 7 5 5 4 4 4 4 4 4 4 7 10 11 12 9 5 6 6 7 7 8 5 6 4 4 5 4 4 5 5 3 3 4 7 10
2 1 2 2 1 2 3 4 5 5 5 3 3 2 2 3 3 3 4 8 11 12 11 8 8 8 6 8 7 6 5 3 4 5 4 3 2 4 4 3 3 4 6
7 5 3 2 2 3 4 4 5 6 6 6 4 3 3 2 3 3 4 6 9 11 10 8 8 8 8 9 9 9 8 6 3 3 4 4 4 1 3 3 3 3 4
7 6 5 4 4 4 4 4 5 6 6 7 6 5 4 4 4 4 4 5 7 8 9 8 7 7 7 8 10 8 6 9 6 3 2 2 4 4 2 2 2 3 3
8 7 7 6 5 4 5 5 5 5 6 6 7 6 4 3 3 3 5 5 5 6 7 7 5 6 5 7 8 8 6 6 6 5 3 3 3 3 4 3 1 0 0
8 7 6 5 4 3 4 4 5 5 5 6 6 7 7 6 6 6 6 5 5 6 7 6 5 5 4 5 6 7 7 6 6 5 5 5 4 4 4 3 3 3 2
8 8 8 8 7 6 5 5 5 4 5 6 7 7 7 8 8 7 8 7 6 6 7 6 5 4 3 4 5 6 6 6 7 7 5 4 4 4 4 4 3 3 2
9 10 10 9 8 8 7 6 6 5 5 6 6 6 6 5 5 7 7 8 7 7 9 8 6 4 3 4 6 5 6 6 6 7 6 4 4 4 5 5 5 4 2
11 10 9 9 9 8 8 8 7 6 6 6 6 6 6 6 6 6 6 6 6 7 10 10 8 6 5 5 6 5 6 6 7 7 8 6 6 6 5 5 5 7 6
9 9 8 8 9 8 8 7 7 7 6 6 6 5 6 7 6 6 7 7 7 7 8 9 9 8 6 6 5 5 5 6 6 6 8 8 6 7 7 6 5 5 7
9 8 7 7 8 7 7 7 7 7 6 6 6 6 6 7 7 7 7 7 7 7 8 8 8 7 7 6 5 5 4 5 5 5 7 9 8 7 7 7 6 6 5
8 8 8 7 7 8 8 8 8 7 7 7 6 6 6 7 7 8 7 7 7 6 6 6 6 6 5 5 6 6 6 6 7 8 8 9 7 8 7 8 9 8 6
9 8 8 9 9 9 8 8 8 8 7 7 7 7 7 8 8 8 7 7 7 6 6 6 6 6 6 7 7 8 8 8 9 9 10 10 9 10 9 9 9 8 7
8 8 9 10 9 8 8 8 8 7 7 6 7 8 8 9 9 8 7 7 7 6 6 6 6 6 6 7 8 8 8 8 9 9 10 10 12 12 12 10 10 9 8
8 9 10 9 8 8 8 8 7 7 6 7 7 8 8 7 7 7 7 7 7 7 6 6 5 5 5 5 7 7 9 9 10 9 9 11 14 15 13 10 11 11 10
8 7 8 8 8 8 8 7 7 7 6 7 8 6 6 7 7 7 7 7 7 7 6 6 6 5 4 6 8 8 8 8 9 9 8 9 12 15 18 17 16 17 14
6 6 7 7 7 7 7 9 8 6 7 8 7 7 7 7 7 7 7 8 8 7 7 6 6 5 5 7 8 8 7 8 8 8 7 6 8 11 9 14 17 18 21
4 5 6 5 3 2 4 6 6 6 8 8 8 7 7 8 7 7 7 7 6 6 6 6 6 5 5 6 7 7 5 6 7 7 7 7 6 7 9 9 10 11 13
6 6 6 6 6 5 2 2 2 4 5 7 7 7 7 7 7 8 8 7 6 6 5 5 5 5 5 6 6 5 2 4 5 5 6 7 6 7 9 8 9 9 9
8 8 7 8 8 6 5 6 3 1 2 4 5 5 6 8 9 8 7 5 6 6 6 5 4 4 5 5 6 4 2 2 2 2 3 6 7 7 9 7 7 9 7
8 7 8 7 5 4 7 7 5 3 3 3 2 2 4 6 6 5 5 5 5 6 5 4 3 4 5 5 6 5 4 3 3 3 2 3 6 7 8 6 4 4 3
7 7 7 6 4 4 6 6 3 2 3 4 4 4 2 1 3 5 5 5 6 5 4 2 2 2 2 4 5 6 7 6 4 4 3 2 4 4 5 4 3 3 4
6 5 7 6 3 2 3 4 0 2 4 5 5 5 5 3 2 4 5 4 5 4 3 2 2 3 2 3 5 5 7 8 4 3 3 3 3 3 3 2 3 4 4
6 5 6 5 2 1 1 2 1 1 2 4 4 4 5 5 4 3 3 4 4 4 3 2 3 3 3 3 2 2 2 5 4 3 4 5 5 4 3 2 2 3 4
5 5 6 5 4 3 3 3 2 2 1 2 3 4 4 4 5 5 4 2 1 2 3 3 3 3 4 4 5 4 4 5 5 6 3 3 2 2 1 1 2 2 2
6 5 5 4 3 2 3 3 4 4 3 1 1 2 3 3 3 4 5 9 6 4 3 2 2 2 3 4 3 5 7 10 12 6 3 3 3 3 3 3 2 2 3
Wind_Direction
257 7 28 35 90 164 181 190 187 162 146 145 160 177 197 196 197 201 195 187 184 187 190 189 175 171 176 169 152 136 126 124 129 103 85 55 60 62 44 52 72 72 72
241 326 16 49 126 163 166 161 154 137 147 143 138 155 160 176 174 175 191 194 191 189 194 190 185 178 168 160 163 147 135 139 156 131 118 95 43 36 34 47 68 62 63
202 214 223 207 179 187 185 170 153 144 144 139 119 101 92 95 135 175 194 200 194 190 189 187 179 177 173 180 180 167 152 156 174 149 142 149 182 141 28 37 52 54 46
199 204 215 220 210 200 181 174 165 159 156 151 156 164 171 182 189 178 186 192 192 189 188 182 175 181 186 187 188 180 164 157 163 138 102 131 147 143 120 26 40 67 57
198 203 213 222 216 185 174 177 175 173 162 160 162 162 167 173 156 150 159 167 173 172 168 164 164 183 193 190 188 179 169 161 162 157 144 113 81 106 135 163 197 49 69
201 210 216 214 215 191 174 170 175 179 168 170 172 177 180 174 163 162 161 157 152 146 144 140 144 161 175 183 185 183 178 172 165 162 158 158 157 164 147 149 171 198 210
199 208 210 207 206 204 197 183 184 191 178 179 187 194 195 187 183 174 172 165 159 151 146 137 140 145 156 172 170 174 187 178 178 180 182 176 171 153 142 137 145 165 195
208 211 211 204 202 205 204 198 201 206 189 190 198 201 198 189 187 179 173 173 170 160 151 146 144 149 164 175 170 171 182 184 193 194 189 187 190 170 160 154 146 147 186
216 214 208 201 201 204 206 203 206 214 206 199 195 195 195 191 186 178 173 171 169 165 159 156 158 168 177 184 175 178 178 180 195 201 201 204 200 191 184 170 166 163 187
230 225 209 202 202 205 205 200 205 214 214 200 196 192 193 193 184 177 182 181 179 173 166 167 171 176 185 193 194 194 185 183 196 198 203 210 203 197 195 194 195 183 185
238 230 219 205 198 194 195 201 207 210 210 205 202 195 191 187 182 188 195 192 188 184 181 181 181 184 189 194 210 227 204 209 224 213 208 215 196 194 198 196 194 189 168
244 229 214 199 191 194 196 200 203 207 209 201 200 204 191 181 185 196 198 196 197 197 192 190 193 195 196 196 209 226 223 217 232 232 220 222 205 202 197 197 200 195 176
248 223 200 198 199 199 198 200 203 209 206 192 197 202 195 191 197 200 194 191 193 194 191 190 200 204 203 203 211 220 225 223 230 230 224 220 201 207 203 199 199 193 183
249 218 203 202 199 196 198 201 207 207 202 194 197 203 204 202 203 196 191 191 189 190 196 204 211 213 212 211 212 216 223 230 235 229 222 216 207 208 203 201 196 182 173
253 218 203 196 192 194 201 205 210 203 197 198 206 212 208 201 194 189 188 186 187 195 196 200 207 206 207 216 216 217 223 227 234 229 218 215 213 211 202 198 192 181 179
253 223 195 183 188 195 203 208 213 203 193 208 218 211 196 194 192 189 179 177 183 187 185 192 195 201 212 228 232 225 226 229 232 231 220 215 217 218 211 209 199 189 185
247 201 183 181 184 191 199 214 219 196 196 216 221 206 197 199 199 187 179 185 186 182 183 189 190 207 232 249 259 249 229 227 229 228 218 215 212 209 205 212 209 205 203
174 156 143 128 122 155 197 218 218 205 209 218 223 215 204 207 202 195 198 194 183 185 187 188 191 207 242 263 277 281 250 234 233 225 216 213 204 194 198 198 201 204 208
116 104 102 102 89 73 80 140 206 223 227 234 234 229 218 215 207 208 209 195 183 184 184 184 188 210 254 279 286 273 246 248 247 231 215 203 194 194 191 192 204 208 215
100 101 96 88 76 60 74 85 77 75 269 266 256 239 224 223 222 218 203 187 183 183 176 180 190 213 247 272 280 232 195 244 253 227 204 190 174 167 172 182 198 216 215
98 94 88 83 79 80 84 78 67 44 340 321 303 265 233 226 222 206 181 172 170 165 165 177 200 223 243 270 282 223 189 207 216 214 204 195 173 160 164 166 183 216 188
97 94 96 92 75 77 91 87 63 13 21 36 34 20 360 235 193 178 171 163 161 162 165 171 254 261 263 269 281 250 211 196 196 213 206 199 184 164 158 162 182 194 156
115 111 118 113 84 51 102 121 19 3 25 35 32 26 32 37 102 161 158 148 154 155 155 157 270 288 287 287 292 274 224 202 192 205 189 174 168 149 136 143 149 152 151
136 132 129 135 167 223 239 224 260 20 31 24 23 29 41 46 53 79 130 147 159 153 152 177 239 268 278 270 270 271 204 179 154 117 109 100 104 104 112 106 116 137 162
153 149 155 171 200 223 236 232 198 148 80 22 32 45 53 63 66 64 60 88 118 152 165 196 212 226 255 256 227 197 179 162 146 124 94 86 101 132 158 159 167 176 177
160 163 178 195 215 227 239 218 179 159 147 101 43 49 64 74 85 91 79 58 60 72 108 158 184 235 268 296 264 202 175 154 147 127 140 160 175 197 207 213 218 220 219
Height
1483 1485 1486 1487 1487 1487 1487 1488 1492 1496 1499 1502 1504 1506 1508 1510 1512 1515 1517 1520 1523 1526 1529 1532 1534 1537 1539 1541 1544 1547 1549 1551 1553 1555 1557 1558 1559 1559 1559 1559 1559 1559 1559
1482 1483 1484 1484 1484 1485 1485 1487 1489 1492 1496 1498 1501 1503 1505 1507 1509 1511 1514 1516 1519 1522 1525 1528 1531 1534 1536 1538 1541 1544 1546 1549 1551 1553 1555 1557 1559 1559 1559 1559 1560 1560 1560
1480 1482 1482 1483 1483 1483 1484 1485 1487 1489 1492 1495 1497 1498 1500 1502 1505 1507 1509 1512 1514 1517 1520 1524 1527 1531 1533 1535 1538 1540 1543 1546 1549 1551 1553 1554 1555 1557 1558 1558 1559 1559 1560
1478 1480 1481 1481 1482 1482 1482 1483 1485 1487 1489 1491 1493 1494 1495 1497 1500 1502 1504 1507 1509 1512 1515 1519 1523 1526 1529 1532 1535 1537 1540 1543 1545 1548 1550 1552 1553 1554 1556 1557 1558 1559 1559
1477 1479 1480 1480 1481 1481 1481 1482 1483 1485 1486 1488 1489 1490 1492 1494 1496 1498 1500 1502 1504 1507 1510 1514 1517 1522 1525 1528 1531 1534 1537 1539 1542 1544 1547 1549 1551 1552 1554 1555 1556 1557 1558
1476 1477 1478 1479 1480 1480 1481 1481 1482 1483 1484 1486 1487 1488 1489 1491 1492 1494 1496 1497 1499 1502 1505 1509 1513 1517 1521 1524 1527 1530 1533 1536 1539 1542 1544 1546 1549 1550 1552 1553 1554 1555 1556
1473 1474 1475 1477 1478 1479 1480 1480 1481 1482 1483 1484 1485 1486 1486 1488 1489 1491 1493 1494 1495 1498 1501 1505 1509 1513 1517 1521 1524 1527 1530 1533 1536 1539 1541 1544 1546 1548 1550 1551 1552 1553 1554
1471 1472 1473 1475 1476 1477 1478 1479 1480 1481 1481 1482 1483 1484 1484 1485 1486 1488 1490 1491 1493 1495 1498 1501 1505 1510 1514 1518 1521 1524 1527 1530 1533 1536 1538 1540 1543 1545 1547 1549 1550 1551 1552
1468 1469 1471 1473 1474 1476 1477 1478 1479 1479 1480 1481 1482 1482 1483 1484 1485 1486 1488 1490 1492 1494 1496 1499 1503 1507 1511 1515 1519 1522 1525 1527 1530 1532 1535 1537 1539 1541 1543 1545 1547 1549 1549
1466 1467 1469 1471 1472 1474 1475 1476 1477 1478 1479 1479 1480 1481 1481 1483 1484 1485 1487 1489 1492 1494 1496 1499 1502 1506 1509 1513 1516 1519 1522 1524 1527 1529 1531 1532 1534 1536 1538 1540 1542 1544 1546
1463 1464 1467 1468 1470 1471 1472 1474 1475 1476 1477 1478 1478 1479 1480 1481 1483 1484 1487 1489 1491 1493 1496 1498 1501 1504 1507 1510 1513 1515 1518 1520 1522 1524 1526 1528 1530 1532 1534 1535 1537 1539 1541
1460 1461 1463 1465 1467 1468 1470 1471 1472 1474 1475 1476 1477 1478 1479 1480 1481 1483 1485 1488 1491 1493 1495 1497 1500 1502 1505 1507 1510 1512 1515 1517 1518 1520 1521 1523 1524 1526 1528 1530 1532 1534 1536
1454 1455 1457 1460 1463 1465 1467 1468 1470 1471 1473 1473 1474 1475 1476 1477 1479 1481 1483 1486 1489 1491 1493 1496 1498 1500 1502 1504 1506 1508 1510 1512 1514 1515 1516 1517 1518 1520 1522 1524 1526 1529 1531
1449 1449 1451 1455 1459 1462 1464 1466 1467 1469 1470 1471 1471 1472 1473 1475 1476 1478 1480 1483 1485 1488 1490 1493 1494 1496 1498 1500 1502 1503 1505 1507 1508 1510 1511 1512 1512 1514 1516 1518 1520 1523 1525
1444 1444 1446 1450 1455 1458 1461 1462 1464 1466 1467 1468 1468 1469 1471 1472 1474 1475 1477 1479 1482 1484 1487 1489 1491 1493 1494 1496 1498 1499 1501 1502 1503 1504 1505 1506 1507 1509 1510 1512 1514 1517 1519
1440 1441 1443 1447 1451 1455 1457 1460 1461 1463 1464 1465 1466 1467 1468 1470 1471 1473 1475 1477 1479 1481 1484 1486 1488 1489 1491 1492 1493 1494 1495 1496 1497 1498 1500 1501 1502 1504 1505 1507 1509 1511 1513
1438 1439 1442 1445 1449 1453 1455 1457 1458 1460 1461 1462 1463 1464 1465 1467 1469 1470 1472 1474 1476 1478 1481 1483 1485 1486 1487 1488 1489 1490 1490 1491 1492 1493 1494 1496 1497 1499 1501 1503 1504 1506 1508
1437 1438 1441 1445 1448 1451 1452 1453 1455 1455 1457 1458 1460 1461 1462 1463 1465 1467 1468 1471 1473 1475 1477 1479 1481 1482 1483 1484 1485 1485 1485 1486 1487 1488 1489 1491 1492 1494 1497 1499 1500 1502 1504
1436 1439 1442 1445 1447 1449 1450 1451 1451 1451 1452 1453 1455 1456 1457 1459 1460 1461 1463 1466 1468 1470 1473 1475 1477 1478 1479 1480 1480 1481 1481 1482 1482 1483 1484 1486 1488 1490 1492 1494 1496 1498 1500
1438 1441 1443 1445 1447 1448 1449 1449 1449 1448 1448 1449 1449 1451 1452 1453 1454 1456 1458 1460 1463 1465 1468 1471 1473 1475 1476 1476 1477 1477 1478 1478 1479 1479 1481 1482 1484 1486 1488 1490 1492 1494 1496
1441 1443 1445 1446 1447 1448 1448 1448 1448 1447 1447 1446 1446 1446 1447 1448 1449 1451 1453 1456 1459 1461 1464 1467 1470 1471 1472 1473 1474 1475 1475 1475 1476 1476 1478 1479 1481 1482 1484 1486 1488 1490 1492
1443 1444 1446 1447 1448 1449 1449 1449 1448 1448 1447 1446 1445 1445 1444 1444 1445 1447 1449 1452 1455 1458 1461 1464 1466 1468 1469 1470 1471 1472 1472 1473 1473 1474 1475 1477 1478 1479 1481 1483 1485 1487 1489
1444 1445 1447 1448 1449 1450 1451 1450 1450 1449 1448 1446 1445 1444 1443 1443 1443 1444 1446 1448 1451 1455 1458 1461 1463 1465 1466 1467 1468 1469 1470 1470 1471 1472 1473 1474 1475 1477 1478 1480 1482 1484 1486
1445 1446 1448 1449 1451 1451 1451 1451 1451 1450 1449 1447 1446 1445 1444 1443 1443 1443 1445 1447 1450 1453 1456 1458 1460 1462 1463 1464 1465 1466 1468 1469 1469 1470 1471 1472 1474 1475 1476 1478 1480 1481 1483
1446 1447 1449 1450 1451 1452 1452 1451 1450 1450 1449 1448 1446 1446 1445 1445 1445 1445 1446 1448 1451 1453 1455 1457 1458 1459 1460 1461 1462 1463 1465 1466 1468 1469 1470 1471 1472 1473 1474 1475 1477 1478 1480
1447 1448 1449 1451 1452 1452 1451 1450 1450 1449 1449 1448 1447 1447 1446 1447 1447 1448 1449 1450 1452 1453 1455 1456 1457 1458 1459 1459 1460 1460 1462 1463 1465 1466 1468 1469 1470 1471 1472 1473 1474 1476 1477